TimeCDT,TemperatureF,Dew PointF,Humidity,Sea Level PressureIn,VisibilityMPH,Wind Direction,Wind SpeedMPH,Gust SpeedMPH,PrecipitationIn,Events,Conditions,WindDirDegrees,DateUTC
12:53 AM,39.0,26.1,60,30.08,10.0,West,5.8,-,N/A,,Clear,280,2013-04-05 05:53:00
1:53 AM,36.0,26.1,67,30.09,10.0,West,4.6,-,N/A,,Clear,270,2013-04-05 06:53:00
2:53 AM,35.1,27.0,72,30.09,10.0,West,5.8,-,N/A,,Clear,260,2013-04-05 07:53:00
3:53 AM,33.1,26.1,75,30.09,10.0,WSW,5.8,-,N/A,,Clear,250,2013-04-05 08:53:00
4:53 AM,42.1,27.0,55,30.10,10.0,West,9.2,-,N/A,,Clear,280,2013-04-05 09:53:00
5:53 AM,41.0,28.0,60,30.12,10.0,WNW,6.9,-,N/A,,Clear,300,2013-04-05 10:53:00
6:53 AM,37.0,27.0,67,30.13,10.0,Calm,Calm,-,N/A,,Clear,0,2013-04-05 11:53:00
7:53 AM,44.1,30.0,58,30.14,10.0,Calm,Calm,-,N/A,,Clear,0,2013-04-05 12:53:00
8:53 AM,48.0,32.0,54,30.15,10.0,NNW,3.5,-,N/A,,Clear,340,2013-04-05 13:53:00
9:53 AM,52.0,35.1,53,30.16,10.0,ENE,3.5,-,N/A,,Clear,60,2013-04-05 14:53:00
10:53 AM,55.0,36.0,49,30.17,10.0,Variable,3.5,-,N/A,,Clear,0,2013-04-05 15:53:00
11:53 AM,60.1,35.1,39,30.17,10.0,Variable,4.6,-,N/A,,Clear,0,2013-04-05 16:53:00
12:53 PM,64.0,35.1,34,30.13,10.0,North,6.9,-,N/A,,Clear,360,2013-04-05 17:53:00
2:53 PM,66.0,37.0,34,30.08,10.0,Calm,Calm,-,N/A,,Clear,0,2013-04-05 19:53:00
3:53 PM,66.9,36.0,32,30.06,10.0,West,3.5,-,N/A,,Clear,260,2013-04-05 20:53:00
4:53 PM,66.0,36.0,33,30.03,10.0,SSE,5.8,-,N/A,,Clear,150,2013-04-05 21:53:00
5:53 PM,66.9,35.1,31,30.02,10.0,Calm,Calm,-,N/A,,Clear,0,2013-04-05 22:53:00
6:53 PM,64.9,37.9,37,30.02,10.0,SSE,3.5,-,N/A,,Clear,150,2013-04-05 23:53:00
7:53 PM,60.1,36.0,41,30.02,10.0,ESE,5.8,-,N/A,,Clear,120,2013-04-06 00:53:00
8:53 PM,57.9,37.0,46,30.01,8.0,SE,6.9,-,N/A,,Scattered Clouds,130,2013-04-06 01:53:00
9:53 PM,57.9,36.0,44,30.00,8.0,SE,9.2,-,N/A,,Clear,130,2013-04-06 02:53:00
10:53 PM,55.0,37.0,51,29.99,10.0,ESE,9.2,-,N/A,,Clear,120,2013-04-06 03:53:00
11:53 PM,54.0,37.0,53,29.98,10.0,SE,6.9,-,N/A,,Clear,130,2013-04-06 04:53:00